Погода в Канаконе

Индия     14°58′51″N   74°06′12″E
темп.,
°C
ветер,
м/с
пор.,
м/с
влажн.,
%
обл.,
%
осадки,
мм/ч
давл.,
гПа
погр.,
м
16 апреля, пт
пт1623:30+28сз347827 0.0 1010555
02:30+28ссз337845 0.2 1009476
05:30+28сз337236 0.3 1010621
08:30+29ссз337313 0.3 1012738
11:30+31зсз54610 0.3 1011972
14:30+31з76655 0.0 1008676
17:30+30зсз666410 0.0 1008798
20:30+29сз46714 0.0 1010601
17 апреля, сб
сб1723:30+28ссз46720 0.0 1010502
02:30+27с35720 0.0 1008372
05:30+26с46750 0.0 1009318
08:30+28ссз46640 0.0 1012609
11:30+31зсз55570 0.0 1012813
14:30+31з66600 0.0 1009778
17:30+30зсз56630 0.0 1009874
20:30+28сз46700 0.0 1011609
18 апреля, вс
вс1823:30+28ссз35730 0.0 1012480
02:30+27ссз34765 0.0 1010415
05:30+26св228024 0.0 1011246
08:30+28ссв12715 0.0 1013463
11:30+29з44685 0.0 1013821
14:30+30зюз55663 0.0 1009755
17:30+29з457176 0.0 10091019
20:30+29зсз456944 0.0 10121048
19 апреля, пн
пн1923:30+28зсз337553 0.1 1012558
02:30+28зсз337377 0.0 1010729
05:30+28зсз3369100 0.1 1011671
08:30+29зсз336679 0.1 1013863
11:30+30з54611 0.1 1012969
14:30+30з55645 0.0 1009825
17:30+29зсз666815 0.0 10081044
20:30+29зсз567129 0.0 1010804
20 апреля, вт
вт2023:30+28сз467415 0.0 1011721
02:30+28сз457525 0.1 1009709
05:30+27ссз467611 0.1 1009643
08:30+29с23685 0.0 1011667
11:30+30з54610 0.0 1010842
14:30+30зсз76615 0.0 1008779
17:30+29сз776625 0.0 1008885
20:30+28сз68703 0.0 1009789